Mercury, NV

5:23 PM PDT on August 25, 2016 (GMT -0700)
Mercury

Weather History for KDRA - January, 2013

Change the Weather History Date:

Thursday, January 10, 2013

  Actual Average Record
Temperature  
Mean Temperature 44 °F 43 °F  
Max Temperature 59 °F 55 °F 70 °F (1986)
Min Temperature 28 °F 32 °F 24 °F (1989)
Degree Days  
Heating Degree Days 22    
Cooling Degree Days 0    
Moisture  
Dew Point 14 °F    
Average Humidity 31    
Maximum Humidity 48    
Minimum Humidity 10    
Precipitation  
Precipitation 0.00 in 0.02 in 0.37 in (1995)
Month to date precipitation 0.27  
Year to date precipitation 0.27  
Sea Level Pressure  
Sea Level Pressure 29.72 in    
Wind  
Wind Speed 17 mph (WNW)    
Max Wind Speed 24 mph    
Max Gust Speed 39 mph    
Visibility 10 miles    
Events      
T = Trace of Precipitation, MM = Missing Value Source: NWS Daily Summary

Daily Weather History Graph

Daily Weather History Graph

Search for Another Location

Airport or City:

Trip Planner

Search our weather history database for the weather conditions in past years. The results will help you decide how hot, cold, wet, or windy it might be!

Date:

Astronomy

Jan. 10, 2013 Rise Set
Actual Time 6:56 AM PST 4:47 PM PST
Civil Twilight 6:28 AM PST 5:15 PM PST
Nautical Twilight 5:56 AM PST 5:47 PM PST
Astronomical Twilight 5:24 AM PST 6:18 PM PST
Moon 5:40 AM PST (1/10) 3:59 PM PST (1/10)
Length of Visible Light 10h 47m
Length of Day
9h 50m
Waning Crescent, 1% of the Moon is Illuminated
Jan 10
Waning Crescent
Jan 11
New
Jan 18
First Quarter
Jan 26
Full
Feb 3
Last Quarter

Hourly Weather History & Observations

Time (PST) Temp. Windchill Dew Point Humidity Pressure Visibility Wind Dir Wind Speed Gust Speed Precip Events Conditions
12:52 AM 57.0 °F - 23.0 °F 27% 29.71 in 10.0 mi SSW 19.6 mph 26.5 mph N/A   Clear
1:52 AM 55.0 °F - 24.1 °F 30% 29.70 in 10.0 mi SSW 15.0 mph 26.5 mph N/A   Clear
2:52 AM 54.0 °F - 24.1 °F 31% 29.67 in 10.0 mi South 17.3 mph 31.1 mph N/A   Clear
3:52 AM 52.0 °F - 24.1 °F 34% 29.65 in 10.0 mi SSW 17.3 mph 24.2 mph N/A   Clear
4:52 AM 50.0 °F - 24.1 °F 36% 29.65 in 10.0 mi SSW 17.3 mph 27.6 mph N/A   Clear
6:52 AM 46.9 °F - 26.1 °F 44% 29.66 in 10.0 mi South 21.9 mph 34.5 mph N/A   Mostly Cloudy
7:52 AM 46.9 °F - 28.0 °F 48% 29.67 in 10.0 mi South 21.9 mph 39.1 mph N/A   Partly Cloudy
8:52 AM 48.9 °F - 26.1 °F 41% 29.68 in 10.0 mi SSW 23.0 mph 36.8 mph N/A   Scattered Clouds
9:52 AM 48.9 °F - 25.0 °F 39% 29.65 in 10.0 mi SSW 19.6 mph 33.4 mph N/A   Partly Cloudy
10:52 AM 50.0 °F - 19.9 °F 31% 29.62 in 10.0 mi South 24.2 mph 38.0 mph N/A   Clear
11:23 AM 46.4 °F 39.8 °F 15.8 °F 29% 29.70 in 10.0 mi West 16.1 mph 26.5 mph N/A   Mostly Cloudy
11:52 AM 46.0 °F 40.2 °F 19.0 °F 34% 29.65 in 10.0 mi WNW 12.7 mph - N/A   Mostly Cloudy
12:12 PM 41.0 °F 31.1 °F 19.4 °F 42% 29.71 in 10.0 mi NNE 23.0 mph 33.4 mph N/A   Mostly Cloudy
12:52 PM 39.9 °F 30.0 °F 12.0 °F 32% 29.67 in 10.0 mi North 21.9 mph 28.8 mph N/A   Overcast
1:20 PM 39.2 °F 29.3 °F 12.2 °F 33% 29.74 in 10.0 mi NNW 20.7 mph 26.5 mph N/A   Overcast
1:52 PM 39.9 °F 31.4 °F 10.9 °F 31% 29.70 in 10.0 mi NNW 16.1 mph 23.0 mph N/A   Overcast
2:06 PM 39.2 °F 31.6 °F 12.2 °F 33% 29.73 in 10.0 mi North 12.7 mph - N/A   Overcast
2:52 PM 39.0 °F 34.0 °F 12.0 °F 33% 29.71 in 10.0 mi ENE 6.9 mph - N/A   Overcast
3:28 PM 39.2 °F 29.3 °F 3.2 °F 22% 29.76 in 10.0 mi NNW 20.7 mph 27.6 mph N/A   Overcast
3:52 PM 39.9 °F 30.2 °F 3.0 °F 21% 29.72 in 10.0 mi North 20.7 mph 26.5 mph N/A   Mostly Cloudy
4:52 PM 37.0 °F 33.3 °F 1.9 °F 23% 29.73 in 10.0 mi NW 4.6 mph - N/A   Clear
5:52 PM 37.0 °F 27.4 °F 1.0 °F 22% 29.75 in 10.0 mi NNW 17.3 mph 21.9 mph N/A   Clear
6:52 PM 36.0 °F 29.6 °F 3.0 °F 25% 29.77 in 10.0 mi NNW 8.1 mph - N/A   Clear
7:52 PM 33.1 °F 25.5 °F 6.1 °F 32% 29.80 in 10.0 mi North 9.2 mph - N/A   Clear
8:52 PM 30.9 °F 25.2 °F 6.1 °F 35% 29.82 in 10.0 mi NNW 5.8 mph - N/A   Clear
9:52 PM 28.0 °F - 6.1 °F 39% 29.86 in 10.0 mi Calm Calm - N/A   Clear
10:52 PM 30.9 °F 19.8 °F 5.0 °F 33% 29.86 in 10.0 mi NW 16.1 mph 23.0 mph N/A   Clear
11:52 PM 30.0 °F 21.7 °F 3.9 °F 33% 29.89 in 10.0 mi NNW 9.2 mph - N/A   Clear